This is the latest recevied weather packets stored in our database for station/object N4DBJ. If no packets are shown the sender has not sent any weather packets the latest 10 day(s).
| Time | Temp. | Humidity | Pressure | Rain* | Wind** | Luminosity | Snow |
|---|---|---|---|---|---|---|---|
| 1777993980 | 20° C | 71% | 1009.6 hPa | 0 mm | - | 251 W/m² | - |
| 1777993676 | 20° C | 71% | 1009.5 hPa | 0 mm | - | 273 W/m² | - |
| 1777993374 | 20° C | 71% | 1009.3 hPa | 0 mm | - | 296 W/m² | - |
| 1777993073 | 19.44° C | 71% | 1009.8 hPa | 0 mm | - | 334 W/m² | - |
| 1777992773 | 19.44° C | 71% | 1009.4 hPa | 0 mm | - | 345 W/m² | - |
| 1777992469 | 19.44° C | 72% | 1009.7 hPa | 0 mm | - | 317 W/m² | - |
| 1777992168 | 18.89° C | 73% | 1009.5 hPa | 0 mm | - | 321 W/m² | - |
| 1777991864 | 18.89° C | 73% | 1009.5 hPa | 0 mm | - | 290 W/m² | - |
| 1777991562 | 18.89° C | 73% | 1009.2 hPa | 0 mm | - | 294 W/m² | - |
| 1777991258 | 18.89° C | 74% | 1009.5 hPa | 0 mm | - | 291 W/m² | - |
| 1777990956 | 18.89° C | 74% | 1009.3 hPa | 0 mm | - | 229 W/m² | - |
| 1777990654 | 18.33° C | 73% | 1009.5 hPa | 0 mm | - | 211 W/m² | - |
| 1777990351 | 18.33° C | 73% | 1009.5 hPa | 0 mm | - | 204 W/m² | - |
| 1777990046 | 18.33° C | 74% | 1009.3 hPa | 0 mm | - | 203 W/m² | - |
| 1777989743 | 18.33° C | 74% | 1009.4 hPa | 0 mm | - | 221 W/m² | - |
| 1777989440 | 18.33° C | 75% | 1009.5 hPa | 0 mm | - | 242 W/m² | - |
| 1777989136 | 17.78° C | 76% | 1009.3 hPa | 0 mm | - | 234 W/m² | - |
| 1777988832 | 17.78° C | 76% | 1009.3 hPa | 0 mm | - | 194 W/m² | - |
| 1777988530 | 17.22° C | 77% | 1009.3 hPa | 0 mm | - | 173 W/m² | - |
| 1777988226 | 17.22° C | 77% | 1009.3 hPa | 0 mm | - | 165 W/m² | - |
| 1777987923 | 17.22° C | 76% | 1009.2 hPa | 0 mm | - | 149 W/m² | - |
| 1777987618 | 17.22° C | 78% | 1009.2 hPa | 0 mm | - | 130 W/m² | - |
| 1777987317 | 16.67° C | 78% | 1009 hPa | 0 mm | - | 124 W/m² | - |
| 1777987014 | 16.67° C | 77% | 1009.1 hPa | 0 mm | - | 120 W/m² | - |
| 1777986711 | 16.67° C | 78% | 1008.9 hPa | 0 mm | - | 117 W/m² | - |
* Rain latest hour (hover to see other rain measurements)
** Current wind speed in m/s (hover to see current wind gust speed)